EHI
0 0 0 0 0 0 0 0 0 1 1 1 2 1 1 0 1 2 4 7 11 16 19 19 17 20 26 29 29 25 21 20 18 16 17 15 11 8 9 11 12 12 10 9
0 0 0 0 0 0 0 0 0 0 0 1 1 1 1 0 1 2 3 5 10 17 23 23 20 22 29 35 33 27 24 22 19 17 16 14 11 9 9 12 13 11 8 8
0 0 0 0 0 0 0 0 0 0 0 0 1 1 2 2 2 2 1 3 8 16 24 27 25 25 31 37 36 32 32 30 22 16 13 11 11 10 9 14 17 14 10 8
0 0 0 0 0 0 0 0 0 0 0 0 1 2 4 5 6 3 2 3 6 13 23 31 32 29 30 34 38 41 44 39 27 17 12 10 11 10 9 14 19 18 14 12
0 0 0 0 0 0 0 0 0 0 0 0 1 2 4 7 7 5 4 5 8 12 21 31 36 35 30 30 37 46 51 47 34 21 14 12 12 10 9 12 18 18 17 18
0 0 0 0 0 0 0 0 0 0 0 0 0 2 4 7 7 7 8 10 10 11 18 29 37 38 35 33 37 47 54 52 41 27 17 15 16 14 12 12 15 16 18 22
0 0 0 0 0 0 0 0 0 0 0 0 0 3 6 8 8 9 12 13 12 12 17 27 35 38 40 40 42 51 59 57 46 34 24 20 19 18 16 14 14 15 18 22
0 0 0 0 0 0 0 0 0 0 0 0 2 6 8 9 9 10 11 12 12 13 18 27 33 36 40 42 45 52 61 60 51 42 34 26 21 19 19 18 17 18 21 23
0 0 0 0 0 0 0 0 0 0 0 0 3 9 11 10 9 9 8 8 9 11 16 23 29 33 36 40 44 51 59 60 53 45 38 30 25 23 23 24 23 24 26 25
0 0 0 0 0 0 0 0 0 0 0 0 2 8 11 11 9 8 8 7 8 10 12 16 23 29 32 36 41 48 54 54 49 42 36 31 30 29 27 28 28 28 28 27
0 0 0 0 0 0 0 0 0 0 0 0 1 5 9 10 8 8 9 10 11 12 12 12 18 26 29 31 36 42 46 46 43 39 34 32 33 33 30 29 31 32 31 29
0 0 0 0 0 0 0 0 0 0 0 0 1 4 6 7 6 6 9 13 14 15 14 15 19 25 28 28 32 36 39 39 39 38 35 32 33 34 32 32 34 35 33 31
0 0 0 0 0 0 0 0 0 0 0 0 0 3 4 5 4 7 11 15 17 18 18 19 22 25 27 29 32 34 33 32 34 36 36 34 35 35 36 37 37 36 33 31
0 0 0 0 0 0 0 0 0 0 0 0 0 2 4 4 4 9 15 18 20 22 23 23 24 26 27 30 32 32 29 27 32 39 40 39 40 40 40 40 39 36 33 30
0 0 0 0 0 0 0 0 0 0 0 0 0 2 4 4 6 11 17 21 24 26 28 29 31 30 29 31 32 31 30 31 35 42 45 45 46 46 46 45 41 36 32 29
0 0 0 0 0 0 0 0 0 0 0 0 0 2 5 6 8 14 19 21 24 28 31 34 37 38 36 34 32 33 37 40 42 44 46 49 50 50 49 47 41 35 32 32
0 0 0 0 0 0 0 0 0 0 0 0 2 5 8 9 11 15 19 20 21 27 32 34 37 38 38 38 36 37 42 48 48 46 46 49 51 51 49 44 39 34 34 35
1 1 0 0 0 0 0 0 0 0 0 1 3 8 12 11 11 14 17 19 22 26 31 32 32 32 34 36 36 37 42 47 48 47 45 45 48 48 46 42 39 37 36 37
1 1 0 0 0 0 0 0 0 0 0 1 4 9 11 11 10 12 16 20 23 26 27 28 27 26 30 34 35 38 41 42 43 43 42 42 43 43 42 41 41 40 40 39
1 1 1 0 0 0 0 0 0 0 1 4 7 9 9 8 9 11 15 19 21 21 21 23 24 26 31 34 35 37 39 39 38 38 38 40 39 39 39 40 41 41 40 40
1 1 1 0 0 0 1 1 2 4 6 8 10 10 10 9 9 10 13 15 15 15 17 20 25 31 34 35 36 37 37 36 36 35 36 37 36 34 35 37 38 38 37 36
1 1 1 1 1 2 3 3 5 8 11 11 11 12 13 11 10 11 13 13 12 13 15 19 27 33 36 37 37 36 36 36 34 32 33 34 31 29 31 34 35 34 31 28
1 0 1 2 2 3 5 5 5 8 8 8 10 12 13 13 11 12 14 14 13 13 16 20 25 31 34 36 36 37 37 36 32 29 29 30 28 28 30 31 30 28 24 20
0 0 1 1 2 2 3 3 4 4 4 4 7 10 11 12 12 12 15 17 16 17 20 22 24 28 33 34 33 33 35 34 30 27 26 26 25 26 30 29 24 22 20 17
0 0 1 2 1 1 2 2 3 4 3 3 4 6 9 11 11 12 15 19 20 21 23 24 23 26 31 31 28 28 29 29 26 24 22 21 21 23 26 26 21 17 16 14
0 1 2 3 2 1 2 3 4 4 5 4 3 4 8 11 11 11 15 20 22 22 24 24 23 25 29 28 25 26 27 26 23 21 19 18 18 21 24 24 20 15 11 11
Wind_Speed
12 10 7 4 6 7 6 4 0 2 3 1 3 6 7 7 6 8 8 9 9 9 10 10 9 10 10 9 8 6 6 5 3 2 2 2 2 2 2 2 2 2 2 2
10 10 8 6 7 8 7 5 3 1 2 1 3 4 6 6 4 5 8 8 10 11 11 10 10 9 10 9 8 7 6 6 4 3 2 1 1 2 2 2 2 1 1 1
11 10 7 8 7 8 7 6 4 4 3 4 5 4 5 6 6 6 7 8 10 10 12 12 10 10 10 10 9 8 7 6 5 4 3 2 2 1 1 2 2 1 1 1
12 10 9 9 7 9 6 5 5 7 6 4 4 2 5 6 7 8 6 7 8 10 12 12 11 10 10 10 10 8 7 6 5 4 3 3 2 2 2 2 2 2 1 2
11 10 10 10 7 7 7 6 8 8 8 6 5 2 5 7 7 7 7 6 6 8 10 12 12 11 10 11 10 9 8 6 5 4 3 2 1 1 1 1 2 2 2 2
12 10 9 9 7 7 7 9 9 9 7 7 5 4 5 7 9 9 8 7 6 7 10 11 11 10 10 10 10 11 9 7 6 5 4 3 1 1 0 0 1 2 2 2
12 12 10 9 9 7 9 8 6 5 5 5 5 1 3 6 9 10 9 8 7 6 9 11 10 10 9 10 10 10 10 8 7 6 4 3 3 2 2 2 2 2 2 2
11 10 11 9 9 7 9 9 7 7 5 3 2 1 4 5 8 9 9 8 8 7 7 8 9 9 10 10 10 10 10 8 7 6 4 3 3 3 2 2 2 2 1 1
9 8 7 8 8 9 9 8 10 11 10 6 3 5 6 5 6 8 8 8 7 7 7 6 6 8 8 9 9 10 9 7 6 5 4 4 4 3 2 1 2 1 1 1
11 11 9 7 9 11 10 9 7 6 6 7 3 4 4 6 5 6 6 6 6 7 8 8 7 6 7 7 8 8 8 7 6 5 4 4 3 3 2 1 1 1 1 1
9 10 10 9 10 8 9 9 7 6 7 7 4 0 4 6 6 6 6 6 6 7 7 7 6 7 8 8 8 7 7 7 6 5 4 4 4 4 3 3 2 1 1 1
5 9 10 11 8 7 9 8 7 6 5 6 6 0 1 3 4 6 6 6 5 6 7 7 7 6 6 7 7 7 6 6 6 5 5 5 3 3 4 3 2 1 1 2
4 6 8 10 9 8 8 8 7 8 7 6 6 3 3 2 3 4 5 5 4 5 6 7 6 6 4 4 5 6 5 5 5 5 5 4 4 3 3 2 2 2 2 2
5 7 10 11 9 8 9 10 9 9 8 7 6 3 2 1 1 3 4 4 4 5 5 6 5 5 5 4 4 4 4 4 4 4 4 4 4 3 3 3 3 3 3 3
5 9 12 14 14 13 12 11 11 11 11 9 5 3 3 3 1 2 4 4 4 5 5 5 4 4 4 4 4 3 2 2 3 3 3 3 3 2 2 2 3 3 3 3
5 8 10 13 14 13 13 13 12 12 11 8 5 2 1 3 1 2 2 2 4 5 4 3 4 4 3 3 3 2 2 2 2 2 2 2 2 2 2 2 2 3 3 3
6 6 9 11 13 13 13 10 9 7 6 5 3 1 1 3 2 1 2 1 3 4 4 3 3 4 3 2 2 2 2 2 2 2 1 1 1 1 2 3 2 2 3 3
7 6 6 10 11 13 7 6 5 5 5 3 1 1 1 2 2 3 3 3 3 4 3 3 2 2 3 2 1 1 2 2 1 1 1 1 1 1 1 2 2 2 2 3
6 6 7 8 11 11 7 4 5 5 4 2 1 2 1 1 0 3 5 5 3 3 2 2 1 2 3 2 1 1 1 2 1 1 1 1 1 1 2 2 2 2 3 3
8 6 8 9 11 10 4 3 5 5 4 4 3 1 1 2 1 2 4 4 3 3 3 2 2 3 3 2 1 0 0 1 0 0 1 1 1 2 2 2 2 2 3 3
8 8 10 11 11 5 3 4 5 5 2 5 4 3 2 2 1 2 2 3 3 2 3 3 3 2 2 2 1 0 1 1 1 1 1 1 1 2 3 2 2 2 3 3
7 7 8 8 10 5 5 4 3 4 5 5 4 4 4 3 2 2 2 3 2 1 1 2 2 2 2 2 1 1 1 2 2 1 1 1 2 3 2 1 2 3 3 4
5 4 3 2 2 3 5 5 4 3 3 4 3 4 4 3 2 2 2 1 1 2 1 1 1 1 1 2 1 1 1 1 1 1 2 2 3 3 2 2 3 3 3 3
2 2 3 2 2 1 3 4 3 3 3 3 3 3 2 2 2 2 1 1 1 1 1 1 2 1 1 1 1 1 1 0 1 1 2 2 3 3 2 2 2 3 3 3
6 4 2 3 2 2 1 2 2 3 4 4 4 4 3 3 3 2 1 1 1 1 1 1 1 1 1 2 1 1 1 1 2 2 3 3 4 3 2 3 3 3 2 2
6 5 4 2 1 2 1 1 2 3 3 4 4 4 4 4 4 3 2 1 1 2 1 1 1 1 1 1 1 0 0 1 2 3 3 4 4 2 3 3 3 2 3 3
Wind_Direction
237 243 251 268 268 275 261 280 260 112 130 131 116 141 154 152 154 152 157 156 156 152 149 146 147 141 137 135 136 137 139 130 133 139 151 155 158 159 148 157 138 138 151 152
241 243 250 242 252 266 273 284 274 204 160 180 156 155 155 138 142 163 156 159 154 152 149 150 152 149 145 141 141 143 148 144 155 145 137 146 137 153 152 129 130 149 151 168
242 248 245 248 251 262 263 272 282 290 270 221 186 172 161 147 148 164 157 156 155 156 155 156 160 159 154 152 155 153 151 149 161 153 157 165 164 165 137 137 141 167 170 199
250 252 254 250 244 262 266 283 287 282 273 255 227 178 162 165 169 163 159 160 154 157 158 158 162 163 160 156 152 147 147 148 155 166 180 186 168 160 163 158 145 164 190 215
252 252 256 260 255 263 278 274 269 269 270 269 234 211 171 179 174 156 156 152 149 156 157 157 160 164 168 160 155 151 149 150 154 173 177 196 177 174 157 148 151 182 199 215
260 257 252 259 261 260 274 270 267 259 264 262 246 229 171 168 162 155 157 149 154 158 156 155 155 156 166 163 158 155 152 155 164 179 177 179 190 204 160 207 199 215 193 188
245 247 239 240 252 238 251 262 268 253 238 244 247 213 114 141 148 150 148 148 151 151 151 150 154 158 164 162 156 153 153 163 173 180 186 186 191 203 210 238 233 239 218 174
247 236 229 228 242 255 256 260 269 282 272 274 285 101 125 112 130 135 137 140 142 145 143 147 154 162 165 163 157 153 155 163 171 176 182 184 191 217 215 223 253 244 255 153
268 256 229 229 239 247 256 263 272 278 278 269 183 138 130 135 133 134 132 135 140 146 138 139 153 160 162 160 159 157 155 159 166 171 174 186 197 216 229 226 241 249 248 217
273 283 266 234 237 235 252 265 272 280 293 287 240 165 162 156 146 138 142 142 135 142 142 148 155 157 153 152 155 157 158 159 164 172 186 186 193 205 203 237 267 307 321 335
266 271 269 255 238 248 248 251 265 280 287 290 288 155 154 161 165 157 153 139 144 143 138 143 148 145 141 147 152 153 160 163 170 184 193 196 186 192 200 209 221 231 249 268
258 269 274 270 259 253 261 263 259 265 275 285 284 240 141 137 156 153 141 134 136 138 138 131 125 128 144 153 156 158 165 171 177 186 186 192 192 195 202 199 204 224 244 248
304 274 271 264 244 237 244 256 266 269 268 265 270 192 198 110 82 98 105 117 129 124 126 131 132 131 140 150 152 158 167 178 182 179 186 184 184 203 211 205 195 205 221 241
273 265 266 267 272 274 257 250 257 265 271 272 264 194 177 42 74 112 107 114 120 115 116 119 117 123 131 130 133 142 165 177 175 175 184 179 187 201 202 205 209 214 220 228
266 263 269 274 280 281 279 267 253 255 264 270 255 239 187 166 192 106 110 118 118 112 104 106 113 120 129 135 135 139 160 159 161 160 173 174 182 192 199 207 213 221 232 242
258 277 280 276 274 274 269 264 260 254 256 255 251 248 107 123 92 93 120 142 127 119 111 104 105 108 113 128 139 146 148 146 142 154 165 161 177 191 204 211 218 226 240 255
256 268 280 277 274 273 262 261 264 268 274 281 286 318 42 55 21 60 103 113 113 116 112 106 109 113 112 111 124 154 158 151 158 170 160 155 179 225 237 245 230 237 249 255
257 267 252 265 273 262 266 283 279 273 281 297 320 86 52 62 29 26 70 88 92 102 106 103 107 122 128 129 135 161 147 146 151 167 181 179 217 241 267 270 264 256 259 262
238 248 260 260 262 259 257 287 302 284 285 349 3 64 17 25 131 78 72 74 60 60 78 102 111 117 102 98 110 131 160 153 167 197 219 214 239 250 262 270 274 272 269 266
222 231 251 256 265 268 279 326 315 283 246 29 24 47 328 310 285 64 56 79 67 38 34 56 74 94 91 76 47 31 126 115 160 263 297 289 270 257 255 257 262 267 267 267
217 225 241 255 263 264 331 338 308 274 353 7 2 1 338 326 11 96 58 68 64 43 15 23 38 62 83 83 72 14 47 33 8 1 323 294 282 272 254 253 267 274 275 276
234 235 241 253 259 265 355 356 10 18 7 358 356 1 13 27 75 93 76 60 27 42 354 360 36 47 70 89 94 73 59 37 19 348 332 314 275 268 271 259 260 265 265 269
240 260 268 284 296 14 23 34 41 25 357 348 350 1 10 19 25 32 52 83 4 338 349 346 355 40 56 96 114 91 62 41 340 326 322 309 292 283 269 254 254 257 257 270
253 260 261 255 209 347 31 42 15 17 0 349 345 347 354 348 340 1 23 11 333 334 334 343 328 342 16 11 100 88 60 356 304 305 295 285 282 281 286 275 264 266 271 272
315 300 266 257 274 295 3 29 14 9 355 349 346 345 348 338 328 327 328 337 336 327 338 341 333 343 343 350 16 68 57 358 322 300 284 277 271 275 272 277 285 270 263 259
282 286 273 260 258 261 306 358 3 351 347 351 346 344 333 325 321 319 313 319 297 293 314 314 308 299 308 306 298 16 25 316 295 286 286 281 281 278 274 269 283 306 251 247